Location: Rosenheim
(47.8408°N, 12.2113°E)
Time: 17:47:44
(UTC+01:00)

Envisat - Visible Passes

Search period start: 21 February 2018 00:00
Search period end: 03 March 2018 00:00
Orbit: 764 x 766 km, 98.2° (Epoch: 21 February)

Date Brightness Start Highest point End Pass type
(mag) Time Alt. Az. Time Alt. Az. Time Alt. Az.
21 Feb 4.1 18:17:29 10° ESE 18:21:21 23° ENE 18:25:15 10° N visible
21 Feb 3.5 19:55:00 10° S 20:00:00 58° W 20:05:02 10° NNW visible
22 Feb 2.9 19:18:12 10° SSE 19:23:15 70° ENE 19:28:20 10° N visible
22 Feb 5.6 20:59:31 10° SW 21:02:48 17° W 21:06:06 10° NW visible
23 Feb 3.6 18:42:08 10° SE 18:46:42 35° ENE 18:51:18 10° N visible
23 Feb 4.5 20:21:06 10° SSW 20:25:43 35° W 20:30:22 10° NNW visible
24 Feb 3.2 19:43:46 10° S 19:48:50 72° WSW 19:53:56 10° NNW visible
25 Feb 3.0 19:07:11 10° SSE 19:12:09 57° ENE 19:17:09 10° N visible
25 Feb 5.3 20:47:43 10° SW 20:51:31 21° W 20:55:22 10° NW visible
26 Feb 3.8 18:31:20 10° ESE 18:35:39 29° ENE 18:40:00 10° N visible
26 Feb 4.1 20:09:42 10° S 20:14:30 43° W 20:19:22 10° NNW visible
27 Feb 3.0 19:32:36 10° SSE 19:37:41 88° WSW 19:42:48 10° NNW visible
27 Feb 5.9 21:15:19 10° WSW 21:17:28 12° W 21:19:36 10° WNW visible
28 Feb 3.3 18:56:14 10° SE 19:01:04 46° ENE 19:05:55 10° N visible
28 Feb 5.0 20:36:05 10° SSW 20:40:17 26° W 20:44:32 10° NW visible
01 Mar 4.1 18:20:35 10° ESE 18:24:37 24° ENE 18:28:39 10° N visible
01 Mar 3.7 19:58:23 10° S 20:03:19 53° W 20:08:19 10° NNW visible
02 Mar 2.9 19:21:29 10° SSE 19:26:33 76° ENE 19:31:39 10° N visible
02 Mar 5.7 21:03:09 10° SW 21:06:10 16° W 21:09:12 10° NW visible
